Newton, KS

8:53 AM CDT on September 23, 2019 (GMT -0500)
Newton City County

Weather History for KEWK - July, 2019

Change the Weather History Date:

Wednesday, July 10, 2019

  Actual Average Record
Temperature  
Mean Temperature 77 °F -  
Max Temperature 86 °F 87 °F 102 °F (2000)
Min Temperature 68 °F 66 °F 57 °F (1996)
Cooling Degree Days 12    
Growing Degree Days 27 (Base 50)    
Moisture  
Dew Point 69 °F    
Average Humidity 79    
Maximum Humidity 100    
Minimum Humidity 55    
Precipitation  
Precipitation 0.01 in - - ()
Sea Level Pressure  
Sea Level Pressure 30.05 in    
Wind  
Wind Speed 9 mph (NE)    
Max Wind Speed 23 mph    
Max Gust Speed 41 mph    
Visibility 10 miles    
Events Thunderstorm    
Averages and records for this station are not official NWS values.
T = Trace of Precipitation, MM = Missing Value Source: NWS Daily Summary

Daily Weather History Graph

Daily Weather History Graph

Search for Another Location

Airport or City:

Astronomy

Jul. 10, 2019 Rise Set
Actual Time 6:14 AM CDT 8:53 PM CDT
Civil Twilight 5:44 AM CDT 9:24 PM CDT
Nautical Twilight 5:05 AM CDT 10:03 PM CDT
Astronomical Twilight 4:22 AM CDT 10:46 PM CDT
Moon 3:05 PM CDT (7/10) 1:50 AM CDT (7/10)
Length of Visible Light 15h 40m
Length of Day
14h 38m
Waxing Gibbous, 64% of the Moon is Illuminated
Jul 10
Waxing Gibbous
Jul 16
Full
Jul 24
Last Quarter
Jul 31
New
Aug 7
First Quarter

Hourly Weather History & Observations

Time (CDT) Temp. Heat Index Dew Point Humidity Pressure Visibility Wind Dir Wind Speed Gust Speed Precip Events Conditions
12:56 AM 78.1 °F - 75.0 °F 90% 29.95 in 10.0 mi ESE 6.9 mph - N/A   Clear
1:56 AM 77.0 °F - 75.0 °F 94% 29.94 in 10.0 mi SSE 8.1 mph - N/A   Clear
2:56 AM 77.0 °F - 75.0 °F 94% 29.93 in 10.0 mi SSE 9.2 mph - N/A   Clear
3:56 AM 77.0 °F - 75.0 °F 94% 29.91 in 10.0 mi South 10.4 mph - N/A   Clear
4:56 AM 75.9 °F - 75.0 °F 97% 29.92 in 10.0 mi SSE 5.8 mph - N/A   Unknown
5:56 AM 75.0 °F - 73.9 °F 96% 29.96 in 8.0 mi ESE 4.6 mph - N/A   Clear
6:56 AM 75.0 °F - 75.0 °F 100% 30.01 in 5.0 mi North 5.8 mph - N/A   Mist
7:56 AM 79.0 °F - 77.0 °F 94% 30.03 in 10.0 mi ENE 3.5 mph - N/A   Scattered Clouds
8:20 AM 71.6 °F - 64.4 °F 78% 30.12 in 10.0 mi NNE 23.0 mph 41.4 mph N/A Thunderstorm Overcast
8:38 AM 69.8 °F - 64.4 °F 83% 30.12 in 9.0 mi NE 12.7 mph 26.5 mph N/A Thunderstorm Overcast
8:56 AM 68.0 °F - 66.0 °F 93% 30.09 in 10.0 mi NE 13.8 mph 21.9 mph N/A Thunderstorm Mostly Cloudy
9:10 AM 68.0 °F - 66.2 °F 94% 30.14 in 10.0 mi NE 9.2 mph 18.4 mph N/A   Mostly Cloudy
9:56 AM 73.9 °F - 66.0 °F 76% 30.11 in 10.0 mi NE 18.4 mph - N/A Thunderstorm Partly Cloudy
10:34 AM 73.4 °F - 64.4 °F 73% 30.13 in 10.0 mi NE 12.7 mph - N/A   Scattered Clouds
10:56 AM 75.0 °F - 66.9 °F 76% 30.09 in 10.0 mi NNE 12.7 mph 17.3 mph 0.01 in   Scattered Clouds
11:56 AM 80.1 °F 82.7 °F 68.0 °F 67% 30.06 in 10.0 mi Variable 4.6 mph - N/A   Clear
12:56 PM 86.0 °F 89.4 °F 68.0 °F 55% 30.05 in 10.0 mi SSE 5.8 mph - N/A   Unknown
1:56 PM 86.0 °F 91.5 °F 71.1 °F 61% 30.05 in 10.0 mi North 8.1 mph - N/A   Unknown
3:56 PM 86.0 °F 92.2 °F 72.0 °F 63% 30.05 in 10.0 mi North 15.0 mph 19.6 mph N/A   Clear
4:56 PM 84.0 °F 88.4 °F 70.0 °F 63% 30.04 in 10.0 mi North 13.8 mph - N/A   Clear
5:56 PM 82.9 °F 85.8 °F 68.0 °F 60% 30.06 in 10.0 mi North 13.8 mph - N/A   Partly Cloudy
6:56 PM 81.0 °F 83.3 °F 66.9 °F 62% 30.05 in 10.0 mi North 12.7 mph - N/A   Mostly Cloudy
7:56 PM 80.1 °F 82.3 °F 66.9 °F 64% 30.06 in 10.0 mi NNE 9.2 mph - N/A   Partly Cloudy
8:56 PM 75.9 °F - 66.9 °F 74% 30.08 in 10.0 mi NNE 6.9 mph - N/A   Clear
9:56 PM 73.0 °F - 63.0 °F 71% 30.10 in 10.0 mi NNE 6.9 mph - N/A   Clear
10:56 PM 70.0 °F - 64.0 °F 81% 30.12 in 10.0 mi NNE 6.9 mph - N/A   Clear
11:56 PM 69.1 °F - 63.0 °F 81% 30.12 in 10.0 mi North 5.8 mph - N/A   Clear